AMOS-3

Last updated on Fri Sep 19 2025 00:02:47 GMT+0000 (Coordinated Universal Time)

1 32794U 08022A 25261.20114394 -.00000056 00000+0 00000+0 0 9997 2 32794 0.0151 131.6987 0003248 62.0518 231.9104 1.00271048 79603
UTC large
Height (km)
Speed (km/s)
/
Latitude / Longitude
Inclination (degrees)
Orbital Period (minutes)
Azimuth
Elevation
Range (km)
Doppler Factor

Next 0 passes for location: London (51.5072 / 0.1276)

Sorry there are no passes over London.